Theta_e
344 342 342 342 342 342 344 347 347 347 347 348 350 351 351 351 352 354 354 355 355 357 359 359 360 360 360 360 359 359 358 358 358 357 357 359 359 359 359 358 356 356
345 343 342 342 342 341 342 346 349 350 349 348 348 350 350 349 350 352 353 355 355 356 358 359 360 361 361 362 361 359 359 359 359 358 357 357 358 359 359 358 357 357
346 345 343 342 342 341 341 343 347 350 352 350 347 348 350 349 349 350 352 353 355 357 358 359 359 361 362 362 360 359 360 361 361 359 357 357 357 359 358 358 357 357
347 347 345 343 342 342 342 341 344 349 351 352 349 346 348 350 351 351 351 354 355 357 359 359 359 360 362 362 361 359 360 360 361 360 359 357 357 358 359 358 357 356
348 348 347 345 344 344 343 341 344 347 350 352 351 348 346 348 351 352 352 354 355 357 359 359 359 359 361 362 360 360 359 359 360 359 360 358 358 359 359 358 357 356
350 349 348 347 346 346 346 344 344 347 349 350 352 351 348 347 350 353 353 355 355 357 359 359 359 358 359 360 360 360 359 359 358 359 360 359 359 359 360 359 357 356
355 352 351 351 350 348 349 350 349 349 351 352 351 352 352 350 350 352 354 356 357 357 358 357 358 357 358 359 360 359 359 359 358 358 359 359 360 361 360 358 356 355
359 355 354 354 353 351 351 353 352 351 352 354 353 352 353 352 351 352 354 357 358 358 357 357 356 357 358 358 359 359 360 360 359 357 358 358 359 361 361 359 357 355
360 359 356 356 356 354 352 354 355 355 353 354 355 354 355 354 353 353 355 357 359 358 357 355 355 356 357 358 358 358 359 360 359 358 357 358 359 361 361 360 360 358
361 361 360 358 357 356 354 354 356 357 355 356 357 356 355 356 356 355 355 357 358 359 358 356 354 355 356 357 358 357 358 358 359 358 357 358 359 361 362 361 361 361
362 362 360 360 358 356 356 355 356 358 358 357 358 357 356 357 357 356 357 357 358 359 359 356 355 355 355 356 356 357 357 357 359 359 358 358 358 360 361 361 361 360
363 361 362 361 359 358 357 357 357 359 359 358 358 357 357 357 358 358 358 358 358 359 359 357 355 355 355 356 356 356 357 358 359 359 359 358 357 358 360 360 361 360
362 361 362 362 360 358 357 357 357 358 358 359 359 358 357 356 358 358 358 359 358 358 360 359 357 355 356 356 357 357 357 358 359 359 360 359 357 358 359 360 360 360
362 361 362 362 360 358 356 357 357 357 358 360 360 359 358 356 357 359 359 360 360 360 360 361 358 357 356 356 358 358 357 358 358 358 360 359 358 358 359 360 360 359
363 363 361 361 360 358 356 357 357 357 357 358 360 360 359 358 356 358 360 360 360 362 362 362 361 359 359 358 359 359 357 357 357 358 360 359 358 358 359 359 358 358
363 362 361 361 361 359 357 357 356 357 357 357 358 359 359 359 357 356 360 361 361 363 364 363 362 362 361 360 360 359 358 356 356 357 359 358 358 358 358 358 358 357
363 362 361 361 360 360 358 357 357 357 357 357 359 359 359 360 357 355 358 361 361 363 365 365 364 363 363 362 362 360 359 356 354 355 357 358 358 358 358 357 356 356
362 362 361 361 360 361 360 358 357 358 358 357 357 358 358 359 358 357 356 359 362 363 364 365 364 362 362 362 363 362 361 358 357 356 356 358 359 359 358 357 356 355
363 363 362 360 361 362 360 359 358 358 360 358 358 359 359 358 359 358 356 357 360 362 362 363 364 362 361 361 362 363 360 359 359 358 356 357 359 359 359 358 357 355
364 364 363 362 362 362 362 361 360 359 360 360 358 358 358 360 360 359 358 356 357 360 361 361 363 362 361 360 361 362 360 359 358 358 358 357 357 358 360 359 358 357
365 365 364 364 363 363 363 363 361 361 361 361 359 358 359 361 361 359 360 357 357 358 360 361 361 361 360 360 360 360 360 358 357 357 359 359 358 359 359 359 360 359
367 366 366 366 364 364 365 364 363 362 361 360 359 358 359 361 362 362 361 360 358 357 358 359 359 359 360 360 360 359 360 360 358 357 357 358 359 360 359 359 360 360
368 367 368 367 366 366 367 365 365 363 362 361 360 359 359 361 363 364 363 362 361 359 359 359 359 359 359 359 359 359 358 359 359 358 358 358 358 359 360 360 360 361
368 368 368 369 369 368 367 367 365 364 363 363 362 362 361 362 364 365 364 364 362 362 361 360 360 359 360 359 358 358 358 359 359 359 360 360 358 358 358 359 360 361
368 369 370 370 370 369 368 368 368 366 365 364 363 362 361 363 364 365 365 364 363 362 363 362 361 360 360 360 359 358 358 359 358 359 360 360 359 359 359 358 358 358
370 370 370 370 370 370 369 370 369 368 366 364 364 364 363 362 363 364 366 366 363 363 364 363 362 360 360 360 359 359 359 359 359 360 360 360 360 360 360 360 359 359
Wind_Speed
34 32 30 28 27 25 23 22 23 23 22 21 20 21 20 19 18 18 18 17 17 16 15 14 13 12 11 10 9 9 7 6 6 6 6 7 6 6 6 6 6 5
35 34 32 30 29 27 26 24 23 23 23 23 21 20 21 20 20 19 19 19 18 18 16 15 15 14 13 11 11 10 9 8 7 6 7 7 7 7 7 7 7 6
35 34 34 32 31 30 28 26 25 23 23 24 23 21 20 20 21 21 21 21 20 19 18 17 16 15 15 13 12 11 10 10 9 8 8 8 8 8 8 8 7 7
37 35 35 34 32 31 30 28 27 26 24 24 24 23 21 20 21 23 23 23 22 20 20 19 17 17 16 15 14 13 12 11 10 9 9 9 9 9 9 9 8 7
39 37 35 34 32 31 31 30 28 28 26 24 24 25 23 21 22 24 24 24 24 22 21 21 20 18 17 17 16 15 13 12 12 11 11 11 10 10 10 9 9 9
39 38 36 35 33 32 31 31 30 29 29 27 25 25 25 24 23 24 25 25 25 23 22 21 21 20 19 18 18 17 15 14 13 13 13 13 12 11 10 10 11 11
38 39 38 35 34 33 32 32 32 31 30 28 27 26 26 26 25 24 25 25 25 24 23 23 23 22 20 19 19 19 18 16 14 14 15 15 14 13 12 12 12 11
37 37 38 36 34 34 33 32 32 32 31 29 28 27 26 27 27 26 26 26 25 25 25 24 24 24 22 21 21 20 19 18 16 16 16 15 15 15 14 14 12 12
36 35 37 36 34 33 33 32 31 32 32 30 28 27 27 27 28 27 27 27 27 26 26 26 25 26 24 22 22 22 22 20 18 17 17 17 16 16 16 15 14 14
35 34 35 35 34 33 33 33 31 30 31 31 29 27 27 28 28 28 28 29 28 27 27 27 26 27 26 25 24 24 24 22 20 19 19 18 18 17 17 16 16 16
36 35 35 35 35 33 33 33 32 30 30 31 30 28 28 28 29 29 29 29 30 28 28 28 28 27 28 27 25 25 25 24 22 21 20 20 19 19 18 18 17 17
36 36 36 36 36 34 33 33 32 31 30 31 31 30 29 28 30 31 30 30 30 29 28 29 29 28 29 28 27 25 25 24 23 23 22 21 20 20 19 19 19 19
37 37 37 36 36 35 34 33 33 32 31 31 31 31 30 29 29 30 31 31 31 30 29 28 30 30 29 30 28 26 25 25 23 22 22 22 21 21 20 20 20 20
37 38 38 37 36 36 35 34 34 33 32 31 31 31 30 29 29 30 31 30 30 31 30 28 29 30 30 31 30 28 26 26 25 23 22 22 22 21 21 20 20 20
38 37 37 37 37 37 36 35 34 34 33 32 32 32 30 30 30 30 31 30 29 30 30 29 29 30 31 31 32 30 28 26 26 25 23 22 22 22 21 21 21 20
38 37 37 37 37 38 38 37 35 35 34 32 33 33 31 31 31 30 30 30 30 30 30 29 28 29 31 32 32 32 30 27 26 26 25 24 23 22 22 22 22 21
37 37 37 38 38 38 39 38 35 35 35 33 32 34 33 32 31 31 30 30 30 29 29 29 28 28 31 33 33 33 32 30 27 26 26 26 25 23 23 23 22 22
37 37 37 38 38 39 39 39 36 34 34 34 33 33 34 33 32 32 30 30 30 29 29 29 29 29 30 33 34 34 33 31 28 27 26 26 26 25 24 24 24 23
37 37 37 38 39 39 38 39 37 34 34 34 33 32 34 34 33 32 31 30 30 30 30 29 28 29 31 32 34 35 35 33 29 27 26 25 25 25 25 25 25 25
37 36 37 38 38 38 37 38 38 36 34 33 32 31 32 33 33 32 31 31 30 30 31 30 28 29 31 32 34 35 36 36 33 28 26 25 24 25 25 25 25 26
36 36 35 36 37 37 37 37 38 37 35 33 32 31 31 31 32 31 31 32 31 29 29 29 29 29 30 32 33 35 36 37 36 32 27 24 23 23 24 24 25 25
35 35 34 35 36 36 36 36 37 37 36 34 31 31 30 30 30 30 30 31 31 30 28 27 27 28 30 32 33 35 36 36 37 35 31 26 23 22 22 23 24 25
34 34 34 33 34 35 35 36 36 36 36 34 32 30 29 29 29 28 28 28 29 30 30 27 26 27 29 31 33 35 36 37 37 36 34 30 27 24 22 22 23 24
34 34 33 33 34 35 34 34 35 35 35 34 32 30 29 28 28 28 27 28 28 30 31 29 27 27 28 29 32 35 36 37 37 36 32 30 29 27 25 24 25 26
34 34 33 33 33 34 33 32 32 33 33 34 32 31 29 28 28 28 27 28 28 29 30 31 29 29 29 28 29 32 35 36 36 34 31 28 27 26 26 27 28 28
33 34 34 34 34 33 32 31 30 30 31 32 31 30 29 28 28 28 27 27 27 28 29 31 30 29 30 30 30 31 33 35 35 33 30 28 27 25 24 25 27 29
Wind_Direction
198 197 196 196 196 195 194 193 194 197 200 201 201 203 204 204 204 203 203 208 215 215 215 218 218 216 215 217 220 221 220 218 225 230 229 236 242 245 251 250 248 254
198 199 199 198 199 199 199 198 198 200 203 204 205 205 207 207 206 205 203 204 210 213 213 215 218 218 215 214 218 219 219 220 222 228 233 237 241 245 251 253 250 248
198 198 199 199 200 201 201 202 203 204 206 208 209 208 207 207 208 208 206 205 206 207 209 212 215 218 216 213 215 217 219 222 221 222 230 236 238 244 249 252 255 246
197 197 198 199 200 202 202 204 205 207 208 210 211 211 209 208 207 207 208 207 206 205 206 208 210 214 216 214 215 217 220 223 222 219 225 233 237 241 246 250 254 253
197 197 198 199 200 201 202 203 205 206 209 211 211 211 211 212 208 205 206 207 206 206 206 206 208 211 215 216 216 218 219 222 223 222 222 228 235 238 243 247 246 249
196 197 198 199 199 200 200 202 205 206 208 210 211 210 211 213 210 204 204 206 206 206 205 205 206 209 212 215 217 218 217 220 222 222 221 223 230 234 236 241 242 242
194 196 197 198 198 199 200 202 205 206 208 209 210 210 209 210 211 206 204 205 206 206 206 205 204 206 208 212 216 218 218 219 221 221 221 222 225 231 233 236 239 238
192 193 196 197 197 199 200 202 204 206 207 207 209 210 209 208 209 207 204 204 206 207 207 206 204 204 206 208 213 216 217 218 220 222 222 222 223 227 230 234 238 239
190 191 193 195 195 197 199 201 203 205 206 207 207 209 208 207 207 206 204 205 206 208 208 207 206 204 204 207 211 214 216 216 218 221 223 222 223 226 228 231 234 236
188 189 190 192 193 195 198 200 201 202 203 205 206 207 206 205 205 205 204 205 206 207 208 207 206 205 205 207 211 214 216 217 217 219 222 222 223 226 227 228 230 231
188 189 190 192 194 196 198 199 200 199 200 202 203 205 204 202 203 204 203 205 206 207 208 207 206 205 205 207 211 214 216 218 218 219 221 223 224 226 228 229 230 231
188 189 191 192 194 196 198 198 199 198 198 199 201 203 203 201 201 202 203 205 206 206 207 207 206 206 207 208 209 212 215 216 218 220 222 223 225 227 229 232 232 233
189 190 192 193 194 196 197 197 199 199 198 199 200 201 202 201 200 201 203 205 206 206 207 208 207 206 208 209 209 211 213 214 216 218 221 222 224 226 229 232 234 234
191 191 192 193 194 195 196 196 198 200 200 199 199 200 201 202 200 199 202 204 206 206 207 208 208 207 208 210 211 211 212 213 214 216 219 221 223 224 227 230 232 234
191 190 191 193 194 194 196 197 198 200 201 199 198 200 202 203 202 199 199 202 205 206 206 207 207 208 209 211 212 212 212 213 214 216 218 221 222 222 225 229 231 234
190 190 190 191 192 194 196 197 198 199 201 200 198 199 201 203 204 201 197 200 203 204 205 207 208 208 209 211 213 213 213 214 215 216 218 221 222 222 224 227 230 233
189 190 190 191 192 194 195 197 198 198 199 201 199 198 200 203 205 204 199 198 201 202 202 205 208 209 209 211 213 213 213 215 216 217 218 220 222 223 224 226 229 232
189 189 189 191 192 193 194 196 197 198 198 200 200 198 198 201 205 206 203 199 200 202 203 205 208 211 211 210 212 213 214 215 217 218 218 219 221 224 225 227 229 232
189 189 189 191 192 192 193 194 196 198 198 199 200 199 198 199 203 207 207 204 202 202 205 207 210 212 213 212 212 214 216 216 218 219 220 220 221 223 225 227 229 231
189 190 190 191 191 192 192 192 195 198 198 198 199 199 198 199 202 206 209 210 208 205 205 208 212 213 214 214 214 215 217 218 219 220 221 223 224 224 224 226 228 230
190 192 192 191 191 191 191 193 195 197 198 198 199 201 201 200 201 205 209 211 213 210 207 208 213 215 215 215 216 217 219 219 220 221 222 225 226 226 226 226 228 230
191 192 193 191 191 191 192 193 195 196 197 196 197 201 203 201 201 205 209 211 213 214 213 212 215 217 217 216 217 219 219 219 220 222 223 226 228 228 228 227 228 229
191 193 193 191 191 191 192 194 194 195 196 196 196 199 201 201 201 205 210 212 212 214 215 217 217 218 219 218 218 218 217 216 218 221 223 227 228 229 229 228 228 228
191 193 193 191 192 193 193 194 194 194 195 195 195 197 200 200 200 203 208 212 212 212 214 217 218 219 220 220 218 217 215 214 216 219 221 225 229 231 233 232 232 232
190 192 193 192 193 194 193 193 193 193 195 195 196 199 200 199 198 201 207 211 213 213 213 214 217 220 221 220 218 216 214 213 214 215 218 223 228 231 234 235 236 237
189 192 193 192 192 192 192 192 192 193 194 195 196 200 202 200 199 201 206 210 212 213 212 211 214 219 222 220 218 217 214 212 211 211 214 219 223 227 230 232 234 236